Date,TemperatureHighF,TemperatureAvgF,TemperatureLowF,DewpointHighF,DewpointAvgF,DewpointLowF,HumidityHigh,HumidityAvg,HumidityLow,PressureMaxIn,PressureMinIn,WindSpeedMaxMPH,WindSpeedAvgMPH,GustSpeedMaxMPH,PrecipitationSumIn
2013-1-1,44.5,41.4,37.5,44.0,39.7,30.5,99,94,65,30.12,29.99,3,0,0,1.07
2013-1-2,39.9,36.2,34.3,39.4,33.7,30.9,98,91,82,30.21,30.03,3,0,0,0.00
2013-1-3,44.1,35.2,29.1,32.3,28.3,23.2,93,77,51,30.40,30.18,2,0,0,0.00
2013-1-4,43.3,32.4,24.3,28.0,23.7,21.4,92,71,49,30.47,30.38,3,0,0,0.00
2013-1-5,44.9,34.9,24.5,34.4,26.0,22.1,92,72,47,30.45,30.27,3,0,0,0.02
2013-1-6,47.0,40.0,34.7,38.1,34.9,28.3,97,83,63,30.32,30.13,4,0,0,0.02
2013-1-7,49.1,36.8,27.5,31.1,27.6,24.1,88,71,47,30.45,30.31,6,0,0,0.00
2013-1-8,52.9,39.1,27.3,37.4,31.8,25.3,95,77,51,30.44,30.31,2,0,0,0.00
2013-1-9,48.1,44.8,40.2,47.6,42.4,35.1,98,91,78,30.48,30.33,1,0,0,0.12
2013-1-10,60.6,53.5,48.1,52.9,50.1,47.6,98,89,74,30.47,30.14,2,0,0,0.00
2013-1-11,66.0,60.8,53.5,62.2,58.2,50.3,97,91,83,30.14,30.02,6,0,0,0.05
2013-1-12,67.9,64.2,62.0,64.8,62.1,58.1,99,93,81,30.09,29.96,3,0,0,0.06
2013-1-13,65.0,62.1,52.5,61.5,59.1,51.3,98,90,77,30.02,29.91,5,0,0,1.35
2013-1-14,52.4,41.7,34.6,51.3,40.9,33.8,99,97,94,30.32,30.02,4,0,0,1.17
2013-1-15,41.9,39.3,36.6,41.6,38.8,36.1,99,98,96,30.23,29.99,3,0,0,1.98
2013-1-16,44.7,40.6,38.0,44.2,40.2,37.5,99,99,97,30.09,29.93,3,0,0,0.64
2013-1-17,40.4,35.2,29.2,40.0,33.1,26.9,99,92,69,30.36,29.92,8,0,0,0.53
2013-1-18,44.8,33.3,26.1,33.3,28.8,25.3,98,85,54,30.57,30.36,2,0,0,0.07
2013-1-19,51.4,37.9,24.3,34.0,29.5,23.5,98,75,46,30.46,30.20,7,0,0,0.02
2013-1-20,56.4,43.9,33.1,37.0,29.2,19.1,86,59,27,30.22,30.11,4,0,0,0.00
2013-1-21,44.9,34.9,26.7,28.1,18.5,10.0,83,54,28,30.25,30.10,6,1,0,0.00
2013-1-22,33.5,26.0,18.8,12.7,3.6,-5.5,65,40,21,30.40,30.23,5,0,0,0.00
2013-1-23,43.6,33.0,21.9,28.0,12.6,1.3,62,43,34,30.41,30.15,4,0,0,0.00
2013-1-24,40.6,31.9,25.5,31.2,14.1,2.9,72,49,28,30.45,30.15,7,0,0,0.00
2013-1-25,31.7,28.9,25.2,31.2,23.4,4.2,98,82,39,30.39,30.13,3,0,0,0.00
2013-1-26,41.2,33.0,29.2,37.5,31.6,27.6,99,94,81,30.40,30.22,2,0,0,0.14
2013-1-27,44.9,36.3,27.4,37.6,31.1,25.4,94,82,64,30.48,30.34,3,0,0,0.03
2013-1-28,51.4,46.9,42.5,48.0,40.8,33.6,88,79,67,30.37,30.23,6,1,0,0.00
2013-1-29,61.3,54.4,50.1,56.2,51.3,46.9,98,90,75,30.24,29.84,4,0,0,0.00
2013-1-30,66.5,55.2,38.8,62.1,52.6,33.4,98,91,78,29.84,29.49,9,1,0,2.85
2013-1-31,41.7,35.9,31.9,33.4,25.0,21.5,81,65,46,30.06,29.68,9,2,0,0.00
2013-2-1,37.7,26.5,18.7,32.7,14.9,9.9,90,62,44,30.44,30.01,7,0,0,0.01
2013-2-2,32.3,26.5,21.8,29.7,21.5,11.7,93,81,60,30.40,30.12,3,0,0,0.00
2013-2-3,41.7,33.6,28.1,34.9,28.7,22.0,97,83,58,30.19,30.03,7,0,0,0.14
2013-2-4,45.5,34.8,24.2,30.1,25.9,21.5,93,72,51,30.18,29.98,3,0,0,0.01
2013-2-5,58.2,47.3,40.7,41.4,35.7,29.8,78,65,47,30.03,29.93,4,0,0,0.00
2013-2-6,61.0,47.4,35.0,37.7,32.4,26.1,89,59,29,30.20,30.03,4,0,0,0.00
2013-2-7,53.9,46.7,40.8,44.0,35.2,28.4,91,66,44,30.15,29.93,2,0,0,0.03
2013-2-8,53.4,44.3,35.5,46.1,39.1,29.0,98,83,59,30.28,29.89,5,0,0,0.08
2013-2-9,54.2,40.6,28.0,30.1,25.8,20.7,86,59,31,30.38,30.24,4,0,0,0.00
2013-2-10,60.8,46.6,39.3,48.1,33.0,20.0,97,63,28,30.25,29.98,5,0,0,0.29
2013-2-11,55.3,51.1,43.6,51.9,42.2,26.6,98,75,36,30.12,29.97,6,1,0,0.05
2013-2-12,53.7,45.2,38.2,38.2,30.0,26.3,84,56,38,30.18,29.87,3,0,0,0.01
2013-2-13,46.0,40.7,35.7,43.9,38.1,32.8,98,90,76,30.00,29.69,6,0,0,0.28
2013-2-14,54.7,43.0,34.6,36.8,34.1,31.4,90,72,49,30.10,29.99,6,0,0,0.00
2013-2-15,50.6,41.2,34.1,40.3,34.5,29.0,92,77,63,30.12,30.03,5,0,0,0.00
2013-2-16,38.4,30.7,25.4,29.5,20.5,8.1,84,67,37,30.16,30.03,5,0,0,0.00
2013-2-17,42.1,30.8,20.0,15.9,11.7,8.2,72,47,25,30.30,30.16,6,0,0,0.00
2013-2-18,58.6,42.0,25.9,30.0,22.3,10.9,73,47,33,30.33,29.99,7,0,0,0.00
2013-2-19,51.4,42.1,34.4,41.5,28.3,12.4,98,63,23,30.20,29.94,10,1,12,0.31
2013-2-20,42.2,33.4,24.9,18.2,15.4,10.7,73,49,32,30.27,30.17,3,0,0,0.00
2013-2-21,50.5,37.5,27.0,36.7,21.4,14.2,96,55,29,30.28,30.01,4,0,0,0.62
2013-2-22,50.9,44.9,37.5,46.7,42.6,36.2,98,92,84,30.09,30.00,4,0,0,0.04
2013-2-23,57.9,48.1,42.5,49.0,45.4,39.1,98,91,70,30.04,29.83,4,0,0,0.04
2013-2-24,56.6,43.1,31.6,39.1,28.0,22.3,88,59,30,30.09,29.92,3,0,0,0.00
2013-2-25,57.9,46.0,37.5,33.6,27.4,22.0,59,49,34,30.06,29.78,4,0,0,0.00
2013-2-26,56.0,46.3,40.2,50.7,41.7,33.5,97,85,53,29.78,29.43,8,0,0,0.45
2013-2-27,44.6,40.1,37.9,36.4,34.1,30.9,87,79,68,29.86,29.68,5,1,0,0.00
2013-2-28,38.7,35.6,33.4,32.7,28.3,24.3,89,75,58,30.02,29.83,5,0,0,0.01
2013-3-1,41.9,36.6,33.2,32.7,31.0,29.2,92,80,63,30.01,29.96,3,0,0,0.00
2013-3-2,39.2,33.5,29.4,32.2,28.1,20.2,96,81,66,30.09,29.95,4,0,0,0.02
2013-3-3,34.7,29.5,24.4,23.6,19.5,15.4,82,66,51,30.13,30.07,3,0,0,0.00
2013-3-4,49.2,35.2,20.2,25.1,20.2,17.1,92,59,31,30.23,30.01,4,0,0,0.00
2013-3-5,46.1,39.1,33.5,45.6,34.3,20.9,99,85,45,30.05,29.61,12,1,13,1.62
2013-3-6,33.7,31.6,28.6,29.8,27.7,23.2,93,85,75,30.29,29.86,7,1,0,0.00
2013-3-7,37.4,33.3,31.4,30.9,28.8,26.8,92,83,74,30.39,30.25,4,0,0,0.01
2013-3-8,53.7,39.5,27.7,29.3,26.7,24.3,88,63,35,30.44,30.31,4,0,0,0.00
2013-3-9,65.4,48.0,32.9,33.5,29.8,26.2,79,52,28,30.33,30.16,5,0,0,0.00
2013-3-10,71.4,59.0,48.2,35.7,31.8,29.4,53,37,23,30.16,29.96,5,0,0,0.00
2013-3-11,61.4,55.3,44.4,53.5,47.0,33.0,97,76,40,29.96,29.68,8,0,12,0.81
2013-3-12,55.7,42.5,37.0,40.4,34.5,31.1,90,75,41,30.06,29.86,3,0,0,0.00
2013-3-13,45.4,37.7,31.3,21.9,19.5,16.4,57,48,36,30.34,30.19,6,1,0,0.00
2013-3-14,49.2,36.2,24.2,27.4,18.7,12.7,76,51,28,30.43,30.26,5,0,0,0.00
2013-3-15,68.9,50.6,34.2,45.0,35.5,26.6,85,59,36,30.28,29.89,6,0,0,0.00
2013-3-16,77.0,65.2,54.7,49.9,46.4,42.9,65,51,36,29.89,29.73,7,1,0,0.00
2013-3-17,74.3,62.4,51.9,52.1,48.9,46.1,86,63,43,29.92,29.78,8,0,0,0.00
2013-3-18,60.6,55.7,52.0,55.7,51.7,47.2,98,87,69,29.86,29.71,5,0,0,1.37
2013-3-19,59.7,48.0,36.6,51.8,28.9,11.4,97,54,17,30.14,29.82,6,0,0,0.00
2013-3-20,56.9,42.9,32.4,33.9,18.0,10.5,84,40,19,30.14,29.88,8,1,0,0.01
2013-3-21,42.9,31.5,21.8,19.4,13.4,9.2,70,48,28,30.05,29.97,4,0,0,0.00
2013-3-22,46.7,35.1,24.8,26.9,18.3,12.7,78,51,31,30.11,30.02,3,0,0,0.00
2013-3-23,52.3,43.4,36.8,43.3,35.6,23.1,90,75,50,30.05,29.78,2,0,0,0.02
2013-3-24,52.6,46.5,40.5,51.0,44.2,32.4,98,92,71,29.80,29.35,12,0,15,0.97
2013-3-25,40.4,33.5,30.3,33.3,28.8,26.4,93,83,67,30.04,29.58,9,2,12,0.08
2013-3-26,40.9,34.0,30.0,31.6,28.7,26.9,94,81,62,30.32,30.04,5,0,0,0.03
2013-3-27,51.6,39.1,30.3,29.1,25.7,21.6,85,61,34,30.37,30.28,5,0,0,0.00
2013-3-28,59.4,42.2,26.6,28.9,23.3,16.6,91,53,21,30.38,30.25,4,0,0,0.00
2013-3-29,49.7,40.5,33.3,42.3,32.6,20.5,97,75,42,30.36,30.25,3,0,0,0.25
2013-3-30,60.0,48.4,40.4,48.8,43.4,39.6,98,84,58,30.26,30.00,3,0,0,0.24
2013-3-31,58.3,52.8,48.6,56.2,51.7,47.0,99,96,87,30.00,29.84,3,0,0,0.56
2013-4-1,64.5,50.8,37.3,52.3,41.8,32.7,99,75,37,30.08,29.88,7,0,0,0.01
2013-4-2,58.1,45.6,33.9,33.6,23.6,18.3,66,44,25,30.24,30.07,5,0,0,0.00
2013-4-3,57.9,47.0,35.7,23.8,19.9,15.9,51,35,23,30.29,30.18,4,0,0,0.00
2013-4-4,47.9,43.1,38.5,42.1,32.5,17.5,97,72,32,30.19,29.98,6,0,0,0.64
2013-4-5,66.8,50.8,38.9,43.6,37.3,31.1,98,67,29,30.09,29.98,5,0,0,0.00
2013-4-6,72.5,56.4,39.0,41.3,36.5,32.7,88,52,25,30.18,30.03,5,0,0,0.00
2013-4-7,76.1,63.2,52.8,47.2,41.3,35.3,64,45,31,30.13,30.00,6,0,0,0.00
2013-4-8,76.0,66.5,54.8,54.7,49.6,43.6,72,55,44,30.06,29.96,7,0,0,0.00
2013-4-9,83.0,70.5,57.6,57.6,53.9,50.3,79,57,40,30.14,29.97,5,0,0,0.00
2013-4-10,87.0,74.3,64.8,58.9,55.6,53.8,70,54,35,30.06,29.82,4,0,0,0.00
2013-4-11,81.5,71.2,58.9,63.5,57.2,54.8,98,63,42,29.84,29.58,9,0,0,1.15
2013-4-12,67.3,57.7,50.2,59.9,45.5,35.1,98,68,32,29.92,29.48,6,1,0,0.26
2013-4-13,73.3,56.9,40.5,43.2,38.0,32.3,93,54,24,30.06,29.92,6,0,0,0.00
2013-4-14,71.0,57.0,43.6,52.5,42.9,34.9,92,62,35,30.04,29.92,6,0,0,0.02
2013-4-15,78.0,64.5,53.9,58.4,54.0,48.6,92,71,43,30.06,29.90,4,0,0,0.00
2013-4-16,83.6,71.1,62.1,63.8,59.8,54.9,83,68,50,30.19,30.06,3,0,0,0.00
2013-4-17,76.3,65.5,59.6,66.0,61.7,58.8,98,88,68,30.20,30.01,6,0,0,0.31
2013-4-18,82.5,69.7,57.2,64.0,58.1,52.8,99,71,37,30.03,29.76,7,0,0,0.00
2013-4-19,72.8,57.4,44.7,63.4,49.0,31.2,97,75,59,30.07,29.62,7,1,0,1.23
2013-4-20,64.9,48.5,33.4,36.4,30.8,24.1,92,55,23,30.29,30.07,4,0,0,0.00
2013-4-21,69.0,54.7,43.8,39.8,33.2,28.5,63,46,27,30.39,30.24,5,0,0,0.00
2013-4-22,72.5,57.3,42.6,45.1,40.0,36.4,87,56,29,30.33,30.12,6,0,0,0.00
2013-4-23,75.8,59.8,44.8,49.4,45.0,40.1,90,61,35,30.20,29.99,3,0,0,0.00
2013-4-24,69.7,58.1,44.1,61.0,50.9,39.7,96,78,62,30.22,29.95,6,0,0,0.28
2013-4-25,67.0,51.8,39.3,42.5,37.9,28.7,97,64,32,30.35,30.22,4,0,0,0.00
2013-4-26,68.7,53.8,39.5,47.8,38.6,30.4,90,60,31,30.41,30.27,6,0,0,0.00
2013-4-27,54.5,52.0,50.0,53.2,49.8,44.4,98,92,72,30.36,30.10,1,0,0,1.09
2013-4-28,58.8,54.9,51.8,58.2,54.5,51.3,99,99,97,30.12,29.93,3,0,0,1.79
2013-4-29,72.5,60.8,55.5,60.2,56.6,54.3,98,87,58,30.02,29.92,2,0,0,0.00
2013-4-30,80.8,64.2,48.8,59.4,53.3,48.3,99,72,35,30.06,29.94,4,0,0,0.00
2013-5-1,79.6,67.0,55.2,60.7,55.6,51.2,94,69,42,30.17,30.04,7,0,0,0.00
2013-5-2,78.5,66.2,56.0,59.4,54.8,50.8,87,68,47,30.17,30.05,4,0,0,0.00
2013-5-3,77.0,64.8,55.4,59.0,53.3,47.9,89,68,46,30.09,29.93,8,0,0,0.02
2013-5-4,61.7,56.5,52.9,54.4,49.8,38.2,98,80,50,29.94,29.87,7,0,0,0.77
2013-5-5,56.9,53.3,50.4,56.0,52.6,49.5,98,97,94,29.88,29.75,7,0,12,1.96
2013-5-6,60.7,52.2,47.3,54.1,49.0,46.8,99,89,67,29.91,29.73,3,0,0,0.24
2013-5-7,70.7,55.8,44.4,57.3,50.9,43.9,99,85,56,29.95,29.87,3,0,0,0.01
2013-5-8,73.4,62.0,55.4,63.4,57.4,54.6,98,86,59,30.04,29.91,3,0,0,0.00
2013-5-9,80.8,65.6,52.5,64.7,57.8,51.7,99,79,47,30.09,29.98,3,0,0,0.01
2013-5-10,71.1,65.0,57.5,63.6,59.2,55.8,97,82,71,30.04,29.89,3,0,0,0.02
2013-5-11,74.7,63.8,53.7,66.0,58.6,48.4,98,84,58,29.97,29.83,4,0,0,0.29
2013-5-12,68.0,56.1,48.1,51.0,40.2,29.1,91,59,24,30.13,29.96,4,0,0,0.01
2013-5-13,69.7,53.5,38.5,41.4,35.9,30.3,91,55,25,30.24,30.12,3,0,0,0.00
2013-5-14,79.3,60.8,41.0,56.8,46.7,34.4,92,63,39,30.23,30.00,4,0,0,0.00
2013-5-15,88.5,73.1,60.8,62.8,56.1,50.1,83,58,33,30.11,29.93,3,0,0,0.00
2013-5-16,85.2,69.2,58.8,64.7,58.3,50.4,95,70,45,30.02,29.91,3,0,0,0.02
2013-5-17,79.9,67.3,58.8,68.7,63.0,57.9,98,87,57,30.06,29.97,6,0,0,0.26
2013-5-18,72.1,66.0,62.9,69.6,65.1,62.1,99,97,90,30.03,29.96,2,0,0,1.35
2013-5-19,72.8,66.2,61.5,70.6,65.6,60.9,99,98,90,30.03,29.95,3,0,0,0.29
2013-5-20,84.1,69.9,57.7,71.1,64.5,57.3,100,85,62,30.10,29.94,2,0,0,0.00
2013-5-21,89.2,72.2,63.3,73.4,66.9,62.1,98,85,53,30.00,29.85,7,0,0,0.10
2013-5-22,84.7,69.9,61.5,73.0,65.1,60.9,99,87,51,29.91,29.79,3,0,0,0.04
2013-5-23,80.4,68.9,61.7,67.6,61.5,53.7,99,79,49,29.97,29.84,5,0,0,0.11
2013-5-24,73.3,61.9,53.3,56.0,49.5,42.6,90,66,36,30.25,29.97,6,0,0,0.01
2013-5-25,78.5,60.7,45.2,53.6,46.0,42.3,94,63,32,30.33,30.15,4,0,0,0.00
2013-5-26,79.5,64.3,52.0,59.9,52.3,46.3,94,67,39,30.27,30.15,4,0,0,0.27
2013-5-27,84.3,69.5,55.2,63.6,57.2,53.1,95,68,39,30.20,30.04,3,0,0,0.00
2013-5-28,86.5,74.7,65.6,65.8,60.6,56.4,79,63,44,30.14,30.02,3,0,0,0.00
2013-5-29,88.3,75.6,65.2,68.5,62.9,58.0,79,66,45,30.17,30.03,2,0,0,0.35
2013-5-30,87.4,75.2,65.4,67.9,63.5,60.3,87,69,44,30.18,30.03,2,0,0,0.21
2013-5-31,87.5,75.5,65.1,66.6,63.5,60.8,88,68,41,30.13,29.99,4,0,0,0.08
2013-6-1,84.8,74.9,69.1,71.7,66.8,62.8,97,77,60,30.02,29.88,4,0,0,0.60
2013-6-2,75.7,69.6,66.1,71.8,68.4,65.3,99,96,84,29.92,29.83,3,0,0,2.77
2013-6-3,82.6,68.2,61.7,69.8,63.6,59.3,99,87,55,29.97,29.86,3,0,0,0.00
2013-6-4,84.5,70.5,58.1,68.2,60.7,56.8,97,74,43,30.02,29.94,4,0,0,0.00
2013-6-5,84.8,69.3,61.3,72.5,65.2,59.4,98,87,61,30.00,29.88,6,0,0,0.09
2013-6-6,82.0,70.7,62.6,71.7,66.7,62.2,99,88,68,29.90,29.70,2,0,0,0.00
2013-6-7,84.7,72.4,66.2,71.1,66.8,63.5,98,84,51,29.82,29.67,4,0,0,0.02
2013-6-8,82.6,71.3,65.2,68.7,65.5,63.9,98,84,56,30.03,29.81,2,0,0,0.01
2013-6-9,82.7,70.6,64.8,74.9,67.5,63.3,98,90,66,30.07,29.93,2,0,0,0.41
2013-6-10,83.2,71.1,66.4,71.2,67.0,61.7,99,89,52,29.93,29.82,8,0,0,0.66
2013-6-11,87.7,73.5,62.3,71.2,66.4,61.8,99,81,49,30.01,29.91,2,0,0,0.00
2013-6-12,91.7,78.1,67.2,78.6,71.7,65.7,97,82,60,30.01,29.86,2,0,0,0.00
2013-6-13,83.3,75.4,68.5,77.9,71.3,62.1,97,87,74,29.88,29.67,9,0,0,1.02
2013-6-14,84.2,70.6,60.1,64.0,59.7,55.1,93,71,39,30.01,29.85,6,0,0,0.98
2013-6-15,86.4,71.9,60.0,67.4,62.3,58.1,95,74,48,30.10,29.99,3,0,0,0.29
2013-6-16,86.5,74.9,66.7,71.3,66.6,63.1,97,77,54,30.08,29.94,3,0,0,0.92
2013-6-17,84.2,73.5,67.7,73.4,69.7,67.0,98,89,65,30.00,29.87,2,0,0,0.03
2013-6-18,76.4,70.0,66.1,73.9,67.4,64.9,99,92,77,29.93,29.81,9,0,0,1.68
2013-6-19,86.0,70.0,61.3,69.5,64.5,60.6,99,85,47,30.02,29.91,4,0,0,0.00
2013-6-20,89.1,74.0,64.0,73.8,66.8,63.1,97,80,49,30.15,30.03,4,0,0,0.00
2013-6-21,85.8,73.8,65.1,72.8,67.2,63.7,97,81,57,30.21,30.10,1,0,0,0.00
2013-6-22,88.8,75.1,64.3,72.3,66.9,63.1,98,78,47,30.20,30.03,4,0,0,0.00
2013-6-23,88.3,74.1,64.1,72.9,67.1,62.9,97,81,50,30.17,30.05,4,0,0,0.00
2013-6-24,88.8,75.6,66.4,74.9,69.2,64.9,97,82,57,30.17,30.03,3,0,0,0.02
2013-6-25,83.0,74.7,70.1,75.9,70.5,67.2,95,87,72,30.11,29.97,2,0,0,0.02
2013-6-26,83.5,74.1,69.4,76.1,72.1,68.5,98,94,76,30.01,29.82,4,0,0,0.27
2013-6-27,86.3,74.5,66.4,77.6,71.5,65.5,99,91,73,29.87,29.73,5,0,0,0.26
2013-6-28,84.2,75.1,69.9,75.9,70.7,65.0,99,87,68,29.80,29.61,3,0,0,0.00
2013-6-29,85.7,73.1,64.4,70.8,65.5,61.3,99,79,49,29.66,29.60,2,0,0,0.44
2013-6-30,86.8,73.5,64.1,69.5,65.3,61.8,96,78,47,29.75,29.64,3,0,0,0.00
2013-7-1,84.0,70.0,63.7,72.2,66.5,62.8,99,89,62,29.87,29.73,3,0,0,0.71
2013-7-2,83.2,72.4,66.5,73.3,68.7,65.9,99,89,66,30.02,29.86,3,0,0,0.22
2013-7-3,72.8,68.7,65.6,71.5,67.9,65.0,99,97,93,30.13,30.01,2,0,0,0.43
2013-7-4,74.0,69.0,65.2,72.6,68.3,64.8,99,98,93,30.14,30.04,3,0,0,0.60
2013-7-5,77.5,71.7,68.4,73.0,69.7,68.1,99,94,80,30.14,30.06,2,0,0,0.18
2013-7-6,73.1,68.9,66.2,72.3,68.4,65.9,99,98,94,30.12,30.07,2,0,0,3.23
2013-7-7,75.5,69.2,66.4,72.7,68.3,66.1,100,97,88,30.14,30.06,2,0,0,1.77
2013-7-8,88.1,74.3,66.8,74.9,70.0,66.5,99,88,56,30.19,30.06,2,0,0,0.00
2013-7-9,88.8,76.3,68.6,78.7,72.5,68.0,99,89,64,30.13,30.00,4,0,0,0.00
2013-7-10,86.8,74.9,69.9,78.6,72.7,69.3,99,93,76,30.05,29.88,3,0,0,0.09
2013-7-11,88.3,75.3,69.4,75.8,71.1,68.6,99,88,62,29.94,29.84,3,0,0,0.01
2013-7-12,83.7,73.5,66.4,69.7,66.3,61.2,97,80,48,29.94,29.86,6,0,0,0.00
2013-7-13,86.8,72.3,66.7,72.1,66.2,61.8,96,82,54,30.04,29.91,11,0,0,0.18
2013-7-14,85.5,74.6,67.2,78.0,70.4,65.8,96,87,68,30.18,30.03,5,0,0,0.13
2013-7-15,89.9,77.2,67.6,74.9,69.2,65.9,95,78,51,30.26,30.17,3,0,0,0.00
2013-7-16,91.9,79.5,69.2,75.4,71.3,68.1,97,78,50,30.29,30.18,3,0,0,0.00
2013-7-17,92.6,79.0,70.1,77.2,72.2,68.3,98,81,52,30.26,30.10,6,0,0,0.01
2013-7-18,91.2,78.5,69.6,77.2,72.3,68.7,98,83,56,30.19,30.00,2,0,0,0.19
2013-7-19,90.0,79.3,70.4,77.8,72.7,69.0,97,81,61,30.07,29.91,3,0,0,0.00
2013-7-20,90.5,79.2,70.5,76.5,72.4,68.7,97,81,59,29.98,29.85,2,0,0,0.00
2013-7-21,83.9,73.5,69.6,77.9,71.8,68.2,98,94,75,29.97,29.88,2,0,0,0.70
2013-7-22,79.7,73.2,70.7,76.3,71.5,69.0,98,94,84,29.95,29.79,3,0,0,0.21
2013-7-23,83.6,74.7,69.7,76.1,71.4,68.3,96,90,73,29.89,29.76,2,0,0,0.01
2013-7-24,86.0,76.1,69.0,76.5,71.6,65.5,98,87,61,29.86,29.76,2,0,0,0.00
2013-7-25,85.3,72.2,62.3,69.3,64.4,61.3,97,78,48,30.01,29.85,4,0,0,0.00
2013-7-26,86.3,72.8,61.4,72.7,66.2,59.8,96,81,62,30.04,29.93,2,0,0,0.00
2013-7-27,83.2,73.5,68.0,73.0,69.5,66.8,97,88,62,29.96,29.83,1,0,0,0.14
2013-7-28,83.1,72.2,64.5,69.3,64.2,55.5,98,78,48,30.03,29.87,4,0,0,0.00
2013-7-29,83.0,68.6,56.7,65.8,58.1,52.9,91,72,41,30.17,30.03,3,0,0,0.00
2013-7-30,77.8,68.5,59.8,68.3,63.1,57.8,94,84,66,30.21,30.11,3,0,0,0.09
2013-7-31,71.3,67.6,62.7,69.8,66.3,59.8,98,95,82,30.12,29.94,3,0,0,0.27
2013-8-1,85.7,74.3,69.2,73.1,69.4,65.9,98,86,57,29.96,29.90,2,0,0,0.00
2013-8-2,87.2,73.4,63.4,70.4,65.5,60.7,98,79,43,30.02,29.94,3,0,0,0.00
2013-8-3,84.0,74.0,66.4,73.6,69.2,64.9,96,86,67,30.00,29.93,1,0,0,0.00
2013-8-4,85.3,75.2,67.4,71.8,67.9,58.6,97,79,49,30.03,29.96,2,0,0,0.00
2013-8-5,86.5,72.2,60.8,67.6,62.6,58.2,96,73,46,30.05,29.93,2,0,0,0.00
2013-8-6,83.7,74.8,68.0,74.1,69.8,65.5,95,85,68,29.97,29.91,1,0,0,0.00
2013-8-7,80.5,75.0,71.9,76.2,72.5,69.7,97,92,84,29.99,29.89,2,0,0,0.11
2013-8-8,78.2,73.2,69.9,75.6,71.8,69.2,98,95,90,30.01,29.92,1,0,0,0.27
2013-8-9,85.0,75.4,70.3,78.7,72.6,69.2,97,91,79,30.05,29.94,3,0,0,0.09
2013-8-10,88.1,74.4,70.3,78.7,72.6,69.7,99,95,70,30.08,30.01,3,0,0,0.40
2013-8-11,87.5,74.6,70.2,77.5,72.7,69.9,99,94,69,30.11,30.02,2,0,0,0.31
2013-8-12,80.8,74.0,70.7,76.6,72.5,70.3,99,95,84,30.07,29.93,2,0,0,0.02
2013-8-13,82.4,74.7,70.1,76.6,71.7,66.5,99,91,76,29.94,29.83,2,0,0,0.12
2013-8-14,78.1,69.2,63.5,67.2,62.6,56.3,96,81,52,30.03,29.90,5,0,0,0.00
2013-8-15,82.0,69.7,61.1,68.6,61.1,53.8,97,75,55,30.06,29.97,4,0,0,0.36
2013-8-16,79.0,70.7,66.3,69.1,65.7,62.6,96,85,62,30.07,29.99,4,0,0,0.00
2013-8-17,74.4,68.7,65.1,67.0,64.9,61.8,98,88,71,30.11,30.04,4,0,0,0.22
2013-8-18,74.2,68.0,64.8,72.1,67.1,64.2,99,97,87,30.16,30.07,2,0,0,0.62
2013-8-19,77.3,70.9,67.3,72.5,68.9,67.0,99,94,78,30.12,30.03,1,0,0,0.08
2013-8-20,85.2,73.4,66.5,73.6,69.3,65.9,99,88,65,30.14,30.05,2,0,0,0.00
2013-8-21,80.4,71.4,66.4,73.6,69.9,65.7,99,95,78,30.19,30.08,2,0,0,0.82
2013-8-22,86.6,75.4,68.2,75.6,71.5,67.8,99,89,63,30.14,29.99,1,0,0,0.01
2013-8-23,86.8,72.0,67.3,75.6,70.2,66.9,99,95,61,30.05,29.98,9,0,0,0.44
2013-8-24,86.8,73.2,66.0,74.2,67.1,62.4,99,83,48,30.20,30.05,4,0,0,0.01
2013-8-25,84.0,71.5,61.8,68.7,64.5,60.6,97,80,53,30.33,30.20,2,0,0,0.00
2013-8-26,84.2,71.1,60.8,70.9,65.3,59.7,98,84,54,30.29,30.11,2,0,0,0.00
2013-8-27,86.1,72.8,63.3,75.0,68.5,62.4,98,88,62,30.13,30.00,1,0,0,0.00
2013-8-28,88.3,75.9,67.0,75.7,70.9,66.4,99,86,62,30.03,29.93,2,0,0,0.00
2013-8-29,90.0,78.2,71.5,78.5,72.9,70.2,96,85,62,29.97,29.88,2,0,0,0.00
2013-8-30,89.5,77.2,68.5,78.3,72.6,67.6,99,87,63,29.97,29.86,2,0,0,0.00
2013-8-31,89.2,77.6,68.6,77.9,72.9,67.4,97,86,61,29.92,29.79,4,0,0,0.01
2013-9-1,85.1,73.3,68.1,77.0,70.2,66.6,99,90,66,29.86,29.78,4,0,0,0.18
2013-9-2,84.5,73.8,68.8,75.3,70.7,67.5,99,91,71,29.91,29.80,2,0,0,0.00
2013-9-3,85.8,73.6,66.4,75.5,68.8,63.0,99,86,53,29.99,29.81,5,0,0,0.25
2013-9-4,83.5,70.5,60.5,69.2,63.9,59.6,98,81,53,30.10,29.98,2,0,0,0.00
2013-9-5,82.3,69.7,59.5,67.8,61.4,52.8,98,77,40,30.14,30.08,4,0,0,0.00
2013-9-6,85.2,72.0,63.1,69.4,64.1,61.7,96,78,49,30.15,30.03,5,0,0,0.00
2013-9-7,84.1,71.9,60.9,71.1,66.5,60.0,98,84,60,30.09,29.95,2,0,0,0.00
2013-9-8,85.6,74.2,65.5,74.6,69.1,64.9,98,86,60,29.99,29.91,2,0,0,0.00
2013-9-9,87.5,75.4,66.5,73.9,69.9,65.8,99,85,60,30.06,29.97,2,0,0,0.00
2013-9-10,87.5,77.2,69.0,74.3,70.3,67.5,95,80,60,30.18,30.06,2,0,0,0.00
2013-9-11,88.6,74.7,67.7,75.0,69.9,66.7,98,86,58,30.19,30.06,2,0,0,0.00
2013-9-12,86.7,75.0,67.1,75.3,70.5,66.5,98,87,64,30.06,29.85,2,0,0,0.32
2013-9-13,76.4,66.4,58.1,66.5,60.9,51.2,99,84,54,29.97,29.86,3,0,0,0.01
2013-9-14,72.3,61.3,53.3,57.0,52.3,49.2,90,74,51,30.07,29.95,6,0,0,0.00
2013-9-15,80.5,65.3,53.9,66.3,59.2,52.5,96,82,54,30.16,30.06,2,0,0,0.00
2013-9-16,81.6,67.0,57.8,68.6,61.9,57.2,98,85,54,30.15,30.08,4,0,0,0.00
2013-9-17,76.8,68.9,63.0,67.5,62.8,57.6,94,81,65,30.19,30.10,5,0,0,0.00
2013-9-18,73.2,68.1,63.9,66.0,63.0,59.8,96,84,69,30.19,30.09,1,0,0,0.00
2013-9-19,80.0,69.1,59.6,69.6,64.4,59.0,99,86,66,30.16,30.01,3,0,0,0.00
2013-9-20,83.0,71.7,62.1,69.0,65.0,61.1,99,81,56,30.04,29.84,3,0,0,0.00
2013-9-21,71.5,65.9,57.1,66.2,63.9,56.3,98,94,81,29.85,29.71,3,0,0,2.20
2013-9-22,72.3,60.8,51.4,59.7,54.9,50.8,99,83,54,29.91,29.80,6,0,0,0.01
2013-9-23,76.8,63.7,53.8,64.1,57.5,51.6,95,81,57,30.01,29.90,3,0,0,0.00
2013-9-24,76.5,66.3,58.0,66.5,62.0,57.1,99,87,64,30.03,29.86,3,0,0,0.00
2013-9-25,67.9,65.7,64.4,66.2,64.6,63.2,98,96,90,29.87,29.80,0,0,0,0.51
2013-9-26,75.6,66.5,61.1,66.4,62.2,58.3,99,87,62,30.00,29.85,4,0,0,0.00
2013-9-27,79.5,66.0,56.2,66.2,59.3,55.6,99,81,52,30.13,30.00,4,0,0,0.00
2013-9-28,75.9,64.0,55.5,64.0,59.4,54.7,98,86,62,30.20,30.07,2,0,0,0.00
2013-9-29,71.0,63.6,57.4,61.2,58.6,56.0,98,85,64,30.12,29.99,1,0,0,0.00
2013-9-30,73.0,62.3,54.4,63.2,58.6,53.8,99,89,67,30.08,29.97,1,0,0,0.00
2013-10-1,75.4,64.0,55.1,67.0,59.9,54.3,98,88,64,30.15,30.03,2,0,0,0.00
2013-10-2,76.5,67.3,59.3,69.3,63.9,58.4,98,90,72,30.16,30.04,1,0,0,0.00
2013-10-3,80.2,70.0,63.6,69.9,65.9,62.8,99,88,65,30.11,30.01,1,0,0,0.00
2013-10-4,80.2,68.3,59.1,68.5,64.1,58.5,99,88,62,30.15,30.05,2,0,0,0.01
2013-10-5,83.7,70.7,61.5,69.4,65.4,60.9,99,85,58,30.11,29.96,1,0,0,0.00
2013-10-6,81.2,72.3,60.4,68.5,64.8,57.1,92,78,59,29.97,29.76,4,0,0,0.09
2013-10-7,66.2,57.9,53.0,57.1,52.6,48.1,98,84,56,30.07,29.83,3,0,0,0.05
2013-10-8,69.0,58.8,50.2,54.8,49.6,45.6,89,73,50,30.14,30.06,9,0,0,0.00
2013-10-9,73.7,61.6,52.0,59.8,54.4,49.7,94,79,56,30.20,30.09,3,0,0,0.00
2013-10-10,73.2,60.7,50.2,60.1,54.4,49.4,99,82,55,30.15,30.03,3,0,0,0.00
2013-10-11,76.0,61.9,50.5,60.9,55.2,49.3,97,81,53,30.08,29.97,1,0,0,0.00
2013-10-12,77.5,63.6,52.7,61.8,56.9,51.6,98,81,52,30.09,29.99,3,0,0,0.00
2013-10-13,78.1,64.9,54.9,63.2,58.5,53.8,97,82,54,30.19,30.09,4,0,0,0.00
2013-10-14,76.5,66.7,58.0,65.1,61.0,56.8,97,83,62,30.21,30.07,4,0,0,0.00
2013-10-15,72.1,65.1,60.3,64.4,61.4,59.2,97,88,71,30.11,30.00,1,0,0,0.00
2013-10-16,65.7,62.4,59.5,61.3,59.4,57.3,97,90,82,30.04,29.92,1,0,0,0.02
2013-10-17,65.5,60.7,50.5,64.9,59.2,48.4,99,95,84,29.99,29.84,2,0,0,0.43
2013-10-18,62.2,52.7,45.0,52.5,48.2,44.4,99,86,58,30.07,29.96,3,0,0,0.00
2013-10-19,61.2,52.2,45.4,54.4,49.1,41.6,98,90,75,30.04,29.90,2,0,0,0.00
2013-10-20,59.3,48.0,36.7,45.9,41.2,35.9,98,80,47,30.12,30.03,3,0,0,0.00
2013-10-21,64.8,51.2,38.1,50.7,44.6,37.3,99,80,53,30.14,29.99,2,0,0,0.00
2013-10-22,61.1,54.5,49.4,53.7,50.3,46.6,95,86,73,30.01,29.85,1,0,0,0.00
2013-10-23,49.8,45.8,35.7,47.6,40.0,33.5,94,80,63,30.11,29.78,5,0,0,0.00
2013-10-24,50.5,46.3,37.4,42.3,39.0,34.8,92,76,65,30.20,30.15,2,0,0,0.00
2013-10-25,44.3,39.3,33.9,31.6,30.0,28.5,87,70,57,30.39,30.36,0,0,0,0.00
2013-10-26,54.5,41.0,27.3,37.3,31.3,26.1,96,72,45,30.37,30.13,3,0,0,0.00
2013-10-27,58.2,52.7,47.1,49.1,43.3,36.2,87,70,59,30.16,30.07,1,0,0,0.00
2013-10-28,62.9,56.9,52.2,55.8,52.9,48.8,94,87,75,30.27,30.11,2,0,0,0.00
2013-10-29,68.0,59.2,52.2,58.1,54.4,51.4,98,85,62,30.33,30.20,2,0,0,0.00
2013-10-30,75.5,65.3,58.1,61.1,57.4,54.9,94,77,55,30.25,30.10,4,0,0,0.00
2013-10-31,70.2,64.7,60.7,62.2,58.0,56.1,89,79,72,30.11,29.69,5,0,0,0.03
2013-11-1,64.8,63.2,61.7,63.9,61.9,59.3,97,95,92,29.69,29.63,5,1,0,0.05
2013-11-2,61.9,54.0,46.5,47.8,41.2,37.8,87,63,43,30.10,29.87,5,0,0,0.00
2013-11-3,56.0,47.7,39.5,42.9,39.0,35.3,95,74,47,30.30,30.09,5,0,0,0.00
2013-11-4,62.1,57.7,53.5,43.5,39.7,37.9,68,51,43,30.44,30.33,4,0,0,0.00
2013-11-5,64.5,59.2,50.4,44.1,40.9,38.3,71,51,39,30.44,30.31,2,0,0,0.00
2013-11-6,70.7,58.9,47.2,56.9,49.0,37.2,87,70,56,30.32,30.05,2,0,0,0.00
2013-11-7,61.9,50.8,40.0,57.8,42.8,29.1,98,75,49,30.28,29.99,8,0,0,0.04
2013-11-8,54.7,43.6,34.5,31.8,26.4,21.6,83,53,29,30.41,30.28,7,0,0,0.00
2013-11-9,54.2,43.5,31.8,36.4,33.0,26.8,94,68,48,30.34,30.22,4,0,0,0.00
2013-11-10,65.3,50.3,39.0,43.7,34.5,23.4,90,58,27,30.33,30.22,5,0,0,0.00
2013-11-11,63.4,49.2,35.3,35.4,28.6,25.4,81,48,25,30.33,30.15,2,0,0,0.00
2013-11-12,55.7,40.3,27.6,41.7,28.0,16.4,87,62,40,30.58,30.12,9,0,0,0.00
2013-11-13,43.1,31.8,23.6,22.8,19.3,16.7,82,61,39,30.69,30.50,4,0,0,0.00
2013-11-14,54.9,37.4,24.2,27.5,21.9,18.2,93,59,26,30.52,30.31,3,0,0,0.00
2013-11-15,49.4,41.6,34.0,42.6,32.3,20.1,97,72,44,30.31,30.18,1,0,0,0.10
2013-11-16,57.9,50.1,43.2,53.9,48.6,42.3,98,95,86,30.24,30.09,3,0,0,0.01
2013-11-17,64.8,60.3,55.9,64.4,58.1,53.6,99,93,80,30.10,29.80,5,0,0,1.23
2013-11-18,62.7,55.4,44.4,59.5,42.5,31.3,98,64,35,30.15,29.84,5,0,0,0.00
2013-11-19,52.2,43.2,35.7,31.7,28.9,24.8,75,58,38,30.25,30.15,5,0,0,0.00
2013-11-20,57.2,45.5,35.5,33.5,30.2,27.9,76,56,36,30.33,30.19,3,0,0,0.00
2013-11-21,59.9,51.5,43.0,52.2,40.2,30.4,84,66,55,30.38,30.26,3,0,0,0.00
2013-11-22,57.0,54.8,51.7,54.6,53.0,50.0,98,94,83,30.30,30.16,3,0,0,0.04
2013-11-23,51.7,43.1,28.9,50.3,35.7,19.4,95,76,52,30.42,30.20,10,0,0,0.00
2013-11-24,35.2,27.3,21.5,19.4,12.2,6.4,75,54,32,30.61,30.42,7,0,0,0.00
2013-11-25,36.3,30.6,25.8,30.7,17.8,10.7,95,60,43,30.51,30.24,1,0,0,0.00
2013-11-26,41.8,36.4,31.9,41.3,35.7,30.5,98,97,94,30.24,29.77,6,0,0,1.71
2013-11-27,35.0,30.6,26.4,33.7,26.2,19.8,96,84,71,30.33,29.84,5,0,0,0.01
2013-11-28,41.3,30.7,21.1,24.4,20.6,18.0,90,67,44,30.51,30.33,4,0,0,0.01
2013-11-29,48.2,35.0,24.8,30.3,25.6,23.0,96,71,42,30.62,30.51,3,0,0,0.00
2013-11-30,51.7,44.8,39.9,32.8,30.6,29.2,66,58,46,30.40,30.31,3,0,0,0.00
2013-12-1,53.9,44.3,33.4,35.9,31.7,26.9,79,62,47,30.31,30.00,4,0,0,0.00
2013-12-2,48.2,45.1,43.0,44.9,41.6,35.5,98,88,62,30.00,29.81,2,0,0,0.07
2013-12-3,52.7,47.8,44.8,51.3,47.1,44.3,99,97,95,29.89,29.83,1,0,0,0.04
2013-12-4,65.2,56.6,50.0,60.4,54.3,49.2,98,92,84,29.96,29.86,1,0,0,0.02
2013-12-5,69.3,65.2,58.3,66.3,62.7,56.6,96,92,86,29.99,29.87,5,0,0,0.09
2013-12-6,58.3,43.7,36.8,56.4,43.0,36.3,98,97,94,30.19,29.88,4,0,0,1.63
2013-12-7,39.7,35.7,33.3,37.0,33.6,31.0,98,92,83,30.44,30.19,6,0,0,0.00
2013-12-8,42.9,38.0,33.3,42.6,37.2,31.3,99,97,90,30.37,30.09,7,0,0,1.50
2013-12-9,53.7,45.3,35.9,48.0,43.3,34.1,99,93,76,30.15,30.04,6,0,0,0.44
2013-12-10,39.9,34.5,26.5,36.1,30.7,23.8,98,86,63,30.38,30.00,5,0,0,0.40
2013-12-11,44.9,32.3,21.4,30.6,24.7,20.3,97,76,43,30.49,30.36,3,0,0,0.00
2013-12-12,39.5,30.2,23.5,25.7,20.0,17.4,84,67,43,30.56,30.43,3,0,0,0.00
2013-12-13,45.4,33.8,21.9,24.6,20.8,15.5,92,61,38,30.44,30.16,2,0,0,0.00
2013-12-14,45.7,40.8,35.9,45.4,36.8,21.5,99,87,48,30.19,29.80,5,0,0,0.43
2013-12-15,43.2,34.6,29.6,40.8,31.2,26.1,94,88,81,30.21,29.85,3,0,0,0.01
2013-12-16,47.1,37.1,29.4,36.1,31.5,26.8,92,81,63,30.26,30.12,4,0,0,0.00
2013-12-17,54.7,43.3,35.6,38.2,32.8,23.3,84,67,47,30.24,30.00,9,1,0,0.00
2013-12-18,46.9,36.3,26.9,26.9,23.3,20.3,85,61,37,30.36,30.24,3,0,0,0.00
2013-12-19,57.2,45.7,33.4,27.6,24.0,20.1,62,43,30,30.32,30.14,5,0,0,0.00
2013-12-20,56.7,51.5,44.5,48.8,35.4,26.5,75,55,41,30.17,30.04,4,0,0,0.00
2013-12-21,69.9,60.8,54.3,64.4,57.3,49.1,98,88,76,30.04,29.77,10,0,0,0.27
2013-12-22,65.4,57.2,54.4,64.3,56.1,53.4,98,96,91,30.03,29.77,7,0,0,2.26
2013-12-23,54.4,46.6,39.5,53.5,44.4,34.9,98,92,81,30.26,29.99,3,0,0,0.03
2013-12-25,41.1,30.5,20.2,24.5,20.0,14.8,83,66,49,30.49,30.35,2,0,0,0.00
2013-12-26,47.4,37.8,29.7,31.1,26.2,21.4,85,64,49,30.42,30.33,3,0,0,0.00
2013-12-27,46.8,36.5,25.4,29.0,24.3,21.9,92,63,43,30.50,30.38,1,0,0,0.00
2013-12-28,42.7,35.0,27.9,38.1,30.6,24.1,97,84,63,30.42,29.98,2,0,0,0.50
2013-12-29,48.6,42.6,38.8,45.7,40.9,37.6,98,94,85,30.04,29.87,2,0,0,0.89
2013-12-30,41.7,37.2,33.7,39.4,33.1,30.2,94,85,75,30.24,30.03,2,0,0,0.00
2013-12-31,41.1,32.0,25.2,30.6,26.0,23.3,96,79,54,30.47,30.23,3,0,0,0.00
2014-1-1,46.1,31.2,23.3,30.0,25.8,21.6,96,82,49,30.38,30.21,3,0,0,0.00
2014-1-2,41.2,31.8,20.2,39.8,28.8,13.7,98,89,74,30.20,29.76,6,0,0,0.53